Change the Weather History Date:

Friday, January 18, 2013

  Actual Average Record
Temperature  
Mean Temperature 64 °F -  
Max Temperature 73 °F 74 °F 80 °F (2006)
Min Temperature 56 °F 61 °F 54 °F (2009)
Growing Degree Days 14 (Base 50)    
Moisture  
Dew Point 59 °F    
Average Humidity 75    
Maximum Humidity 94    
Minimum Humidity 58    
Precipitation  
Precipitation 0.00 in - - ()
Sea Level Pressure  
Sea Level Pressure 29.89 in    
Wind  
Wind Speed 7 mph (NNW)    
Max Wind Speed 15 mph    
Max Gust Speed 22 mph    
Visibility 10 miles    
Events Rain    
Averages and records for this station are not official NWS values.
T = Trace of Precipitation, MM = Missing Value Source: NWS Daily Summary

Daily Weather History Graph

Daily Weather History Graph

Search for Another Location

Airport or City:

Trip Planner

Search our weather history database for the weather conditions in past years. The results will help you decide how hot, cold, wet, or windy it might be!

Date:

Astronomy

Jan. 18, 2013 Rise Set
Actual Time 7:12 AM HST 6:13 PM HST
Civil Twilight 6:48 AM HST 6:36 PM HST
Nautical Twilight 6:21 AM HST 7:04 PM HST
Astronomical Twilight 5:54 AM HST 7:31 PM HST
Moon 11:59 AM HST (1/18) 12:15 AM HST (1/18)
Length of Visible Light 11h 48m
Length of Day
11h 00m
Waxing Crescent, 49% of the Moon is Illuminated
Jan 18
Waxing Crescent
Jan 18
First Quarter
Jan 26
Full
Feb 3
Last Quarter
Feb 9
New

Hourly Weather History & Observations

Time (HST) Temp. Dew Point Humidity Pressure Visibility Wind Dir Wind Speed Gust Speed Precip Events Conditions
12:55 AM 60.1 °F 56.5 °F 88% 29.91 in 10.0 mi WNW 5.8 mph - N/A   Clear
1:55 AM 59.9 °F 55.8 °F 86% 29.88 in 10.0 mi NW 4.6 mph - N/A   Clear
2:55 AM 60.1 °F 57.2 °F 90% 29.87 in 10.0 mi NW 3.5 mph - N/A   Mostly Cloudy
3:55 AM 57.7 °F 55.2 °F 91% 29.86 in 10.0 mi NNW 3.5 mph - N/A   Partly Cloudy
4:55 AM 57.6 °F 55.2 °F 92% 29.86 in 10.0 mi NNW 3.5 mph - N/A   Clear
5:55 AM 57.7 °F 55.8 °F 93% 29.88 in 10.0 mi NW 3.5 mph - N/A   Scattered Clouds
6:55 AM 56.5 °F 54.7 °F 94% 29.89 in 10.0 mi Calm Calm - N/A   Clear
7:55 AM 58.6 °F 56.3 °F 92% 29.91 in 10.0 mi Calm Calm - N/A   Clear
8:55 AM 64.9 °F 59.9 °F 84% 29.93 in 10.0 mi North 4.6 mph - N/A   Clear
9:55 AM 69.4 °F 59.4 °F 70% 29.94 in 10.0 mi NNW 10.4 mph - N/A   Clear
10:40 AM 69.8 °F 59.0 °F 68% 29.94 in 10.0 mi NNW 11.5 mph - N/A   Mostly Cloudy
10:41 AM 71.6 °F 59.0 °F 64% 29.94 in 10.0 mi NNW 15.0 mph - N/A   Mostly Cloudy
10:43 AM 71.6 °F 59.0 °F 64% 29.95 in 10.0 mi NNW 12.7 mph - N/A   Mostly Cloudy
10:46 AM 69.8 °F 57.2 °F 64% 29.94 in 10.0 mi North 10.4 mph - N/A   Mostly Cloudy
10:55 AM 70.9 °F 58.5 °F 65% 29.94 in 10.0 mi NNW 12.7 mph - N/A   Mostly Cloudy
11:55 AM 71.6 °F 58.5 °F 63% 29.91 in 10.0 mi NNW 11.5 mph 18.4 mph N/A   Mostly Cloudy
12:55 PM 73.2 °F 57.9 °F 59% 29.87 in 10.0 mi NNW 12.7 mph - N/A   Partly Cloudy
1:55 PM 73.9 °F 58.1 °F 58% 29.83 in 10.0 mi NW 10.4 mph - N/A   Partly Cloudy
2:55 PM 73.2 °F 58.6 °F 60% 29.83 in 10.0 mi NNW 11.5 mph - N/A   Clear
3:55 PM 72.7 °F 59.2 °F 62% 29.85 in 10.0 mi NW 12.7 mph - N/A   Mostly Cloudy
4:34 PM 69.8 °F 60.8 °F 73% 29.86 in 10.0 mi NW 13.8 mph - N/A   Light Drizzle
4:44 PM 69.8 °F 60.8 °F 73% 29.86 in 10.0 mi NW 9.2 mph - N/A   Scattered Clouds
4:52 PM 71.6 °F 62.6 °F 73% 29.86 in 10.0 mi NNW 12.7 mph - N/A Rain Light Rain
4:55 PM 70.9 °F 62.2 °F 74% 29.85 in 10.0 mi North 13.8 mph - 0.00 in Rain Light Rain
5:03 PM 69.8 °F 62.6 °F 78% 29.86 in 10.0 mi NNW 11.5 mph - N/A Rain Light Rain
5:05 PM 69.8 °F 62.6 °F 78% 29.86 in 10.0 mi NNW 11.5 mph - N/A Rain Light Rain
5:14 PM 69.8 °F 62.6 °F 78% 29.86 in 10.0 mi NW 15.0 mph 21.9 mph N/A   Mostly Cloudy
5:55 PM 69.3 °F 61.2 °F 75% 29.88 in 10.0 mi NW 12.7 mph - 0.00 in   Scattered Clouds
6:55 PM 67.6 °F 61.2 °F 80% 29.90 in 10.0 mi North 8.1 mph - N/A   Scattered Clouds
7:55 PM 67.1 °F 60.4 °F 79% 29.93 in 10.0 mi NNW 8.1 mph - N/A   Mostly Cloudy
8:55 PM 66.2 °F 58.6 °F 77% 29.93 in 10.0 mi North 8.1 mph - N/A   Mostly Cloudy
9:55 PM 64.8 °F 56.1 °F 74% 29.93 in 10.0 mi NNW 6.9 mph - N/A   Scattered Clouds
10:55 PM 64.0 °F 54.9 °F 72% 29.94 in 10.0 mi NNW 5.8 mph - N/A   Scattered Clouds
11:55 PM 62.1 °F 53.1 °F 72% 29.93 in 10.0 mi Calm Calm - N/A   Scattered Clouds